Regional Weather Roundup
Issued by NWS

Home | Current Version | Previous Version | Text Only | Print | Product List | Glossary On
Versions: 1 2 3 4 5 6 7 8 9 10 11 12 13 14 15 16 17 18 19 20 21 22 23 24 25 26 27 28 29 30 31 32 33 34 35 36 37 38 39 40 41 42 43 44 45 46 47 48 49 50
000
ASUS43 KDTX 061801
RWRMI
MICHIGAN HOURLY REGIONAL WEATHER ROUNDUP
NATIONAL WEATHER SERVICE DETROIT/PONTIAC MI
100 PM EST FRI MAR 06 2015

NOTE: "FAIR" INDICATES FEW OR NO CLOUDS BELOW 12,000 FEET WITH NO
SIGNIFICANT WEATHER AND/OR OBSTRUCTION TO VISIBILITY.

MIZ047>049-052>055-059>063-066>070-074>076-081>083-061900-
SOUTHEAST LOWER MICHIGAN

CITY           SKY/WX    TMP DP  RH WIND       PRES   REMARKS
ADRIAN         FAIR      16   3  56 SW16G23   30.42F WCI   1
6HR MIN TEMP:  -6; 6HR MAX TEMP:  16;

ALMA           FAIR      19   9  67 S15       30.31F WCI   4
ANN ARBOR      FAIR      17   2  51 SW15      30.40F WCI   2
BAD AXE        FAIR      21   3  47 SW17      30.30F WCI   6
6HR MIN TEMP:  -1; 6HR MAX TEMP:  21;

CARO           FAIR      21   3  45 SW15G22   30.32F WCI   8
DETROIT CITY   FAIR      21   6  52 SW16G24   30.40F WCI   7
6HR MIN TEMP:   5; 6HR MAX TEMP:  21;

DETROIT        PTSUNNY   21   2  43 SW20      30.43F WCI   6
6HR MIN TEMP:   1; 6HR MAX TEMP:  21;

FLINT          FAIR      22   1  40 SW14      30.34F WCI   9
6HR MIN TEMP:   4; 6HR MAX TEMP:  22;

GROSSE ILE     FAIR      21   7  53 S12       30.41F WCI   9
HILLSDALE      FAIR      18   1  47 SW13      30.36F WCI   4
6HR MIN TEMP:   2; 6HR MAX TEMP:  18;

HOWELL         FAIR      20  -1  39 SW14G21   30.34F WCI   7
6HR MIN TEMP:   3; 6HR MAX TEMP:  20;


CITY           SKY/WX    TMP DP  RH WIND       PRES   REMARKS
JACKSON        FAIR      19   1  45 SW16G22   30.36F WCI   4
6HR MIN TEMP:   0; 6HR MAX TEMP:  19;

LAMBERTVILLE   FAIR      23   5  46 SW14G20   30.44F WCI  11
LANSING        FAIR      18   2  49 S15G24    30.34F WCI   4
6HR MIN TEMP:   4; 6HR MAX TEMP:  18;

LAPEER         FAIR      22   1  40 SW16      30.33F WCI   8
MASON          FAIR      19   0  42 S9G20     30.34F WCI   8
MONROE         FAIR      19   5  53 SW18      30.42F WCI   4
MT. CLEMENS    CLOUDY    21   5  50 SW21      30.37F WCI   5
6HR MIN TEMP:  -7; 6HR MAX TEMP:  22;

PONTIAC        PTSUNNY   19   1  45 SW10G21   30.34F WCI   7
6HR MIN TEMP:  -4; 6HR MAX TEMP:  19;

PORT HOPE        N/A     21   2  43 S13G25    30.27F WCI   9
6HR MIN TEMP:   3; 6HR MAX TEMP:  21;

PORT HURON     FAIR      19   7  58 S20       30.38F WCI   4
TRI CITIES     FAIR      20   7  57 SW12      30.31F WCI   8
6HR MIN TEMP:   4; 6HR MAX TEMP:  20;

TROY           FAIR      22   2  41 S13G18    30.40F WCI  10
SAGINAW HB     FAIR      21   5  49 S20       30.31F WCI   6
$$
MIZ043>046-050>051-056>058-064>065-071>073-077>080-061900-
SOUTHWEST LOWER MICHIGAN

CITY           SKY/WX    TMP DP  RH WIND       PRES   REMARKS
BATTLE CREEK   FAIR      17   4  56 S17       30.35F WCI   1
6HR MIN TEMP:   0; 6HR MAX TEMP:  17;

BENTON HARBOR  FAIR      17   3  54 S15G23    30.36F WCI   2
6HR MIN TEMP:   2; 6HR MAX TEMP:  17;

BIG RAPIDS     FAIR      21  10  61 SW12G23   30.24F WCI  10
6HR MIN TEMP:   1; 6HR MAX TEMP:  22;

COLDWATER      FAIR      17   0  47 S10G21    30.37F WCI   5
6HR MIN TEMP:  -1; 6HR MAX TEMP:  17;

FREMONT        CLOUDY    20  10  66 SW17      30.28F WCI   5
HOLLAND        FAIR      20   6  55 S15       30.34F WCI   6
6HR MIN TEMP:   7; 6HR MAX TEMP:  20;

GRAND RAPIDS   PTSUNNY   18   3  52 S15       30.33F WCI   4
6HR MIN TEMP:   5; 6HR MAX TEMP:  18;

IONIA          FAIR      20   5  52 S14       30.32F WCI   6
KALAMAZOO      FAIR      18   4  54 S18       30.36F WCI   2
6HR MIN TEMP:  -2; 6HR MAX TEMP:  18;

LUDINGTON      PTSUNNY   23  14  67 SW22G29   30.23F WCI   8
6HR MIN TEMP:  16; 6HR MAX TEMP:  24;

MARSHALL       FAIR      17   0  47 S14       30.35F WCI   3
MOUNT PLEASANT FAIR      21   9  59 S14       30.27F WCI   8
6HR MIN TEMP:   3; 6HR MAX TEMP:  21;

MUSKEGON       FLURRIES  18  11  74 S20G26    30.31F WCI   2
6HR MIN TEMP:  16; 6HR MAX TEMP:  18; 6HR PCP: TRACE;

SOUTH HAVEN    FAIR      21   3  45 S9        30.35F WCI  11
$$
MIZ016>042-061900-
NORTHERN LOWER MICHIGAN

CITY           SKY/WX    TMP DP  RH WIND       PRES   REMARKS
ALPENA         FAIR      26   2  35 W12G25    30.17F WCI  16
6HR MIN TEMP:   2; 6HR MAX TEMP:  26;

BEAVER ISLAND  FAIR      23  15  70 SW21G31   30.09F WCI   8
6HR MIN TEMP:  10; 6HR MAX TEMP:  23;

BELLAIRE       FAIR      26   7  45 SW10G21   30.17F WCI  16
6HR MIN TEMP:  -1; 6HR MAX TEMP:  26;

CADILLAC       FAIR      22   8  54 SW21      30.15F WCI   6
CHARLEVOIX     FAIR      24  11  58 S14G24    30.16F WCI  12
FRANKFORT      PTSUNNY   24  16  73 S18G28    30.18F WCI   9
GAYLORD        FAIR      22   4  46 SW20G28   30.11F WCI   7
6HR MIN TEMP:   5; 6HR MAX TEMP:  22;

GRAYLING       FAIR      22   4  45 S16G23    30.16F WCI   8
HARBOR SPRINGS FAIR      24  11  56 SW16G26   30.12F WCI  11
HOUGHTON LAKE  FAIR      22   6  50 SW15      30.18F WCI   9
6HR MIN TEMP:   0; 6HR MAX TEMP:  22;

MANISTEE       FAIR      25   9  50 S18G25    30.21F WCI  11
OSCODA         FAIR      21   8  57 SW17      30.23F WCI   6
PELLSTON       FAIR      23   9  55 SW13G22   30.13F WCI  11
6HR MIN TEMP:   6; 6HR MAX TEMP:  23;

ROGERS CITY    FAIR      26   7  44 SW15G26   30.15F WCI  13
TRAVERSE CITY  PTSUNNY   26  10  50 S14G23    30.16F WCI  14
6HR MIN TEMP:  10; 6HR MAX TEMP:  26;

$$
MIZ007>008-015-061900-
EASTERN UPPER MICHIGAN

CITY           SKY/WX    TMP DP  RH WIND       PRES   REMARKS
KINROSS        FAIR      23  12  63 SW12G23   30.06F WCI  12
6HR MIN TEMP:   1; 6HR MAX TEMP:  23;

MACKINAC ISLAN FAIR      23  11  60 SW16G29   30.09F WCI  10
6HR MIN TEMP:   5; 6HR MAX TEMP:  23;

NEWBERRY       FAIR      22  13  70 S30G41    30.01F HAZE    WCI   3
S. S. MARIE    FAIR      21   8  57 S13       30.06F WCI   9
6HR MIN TEMP:  -9; 6HR MAX TEMP:  21;

MUNISING         N/A     24   4  42 SW18G28   29.96F WCI  10
6HR MIN TEMP:   3; 6HR MAX TEMP:  24;

$$
MIZ004>006-011>014-085-061900-
CENTRAL UPPER MICHIGAN

CITY           SKY/WX    TMP DP  RH WIND       PRES   REMARKS
MANISTIQUE     CLOUDY    23  13  65 SW17      30.05F WCI   9
ESCANABA       FAIR      16   9  73 S17G26    30.06F WCI   0
6HR MIN TEMP:   0; 6HR MAX TEMP:  16;

MENOMINEE      PTSUNNY   19   7  58 SW17G24   30.07F WCI   4
6HR MIN TEMP:   1; 6HR MAX TEMP:  19;

SAWYER-GWINN   SUNNY     25   7  46 SW18      29.92F WCI  11
$$
MIZ001>003-009>011-084-061900-
WESTERN UPPER MICHIGAN

CITY           SKY/WX    TMP DP  RH WIND       PRES   REMARKS
IRON MOUNTAIN  PTSUNNY   26   7  44 SW13      29.95F WCI  15
6HR MIN TEMP:  -2; 6HR MAX TEMP:  26;

HOUGHTON       FAIR      23  10  57 W23G30    29.89F WCI   7
6HR MIN TEMP:   1; 6HR MAX TEMP:  23;

COPPER HARBOR    N/A     25   9  50 NW9G20    29.90F WCI  15
6HR MIN TEMP:   8; 6HR MAX TEMP:  25;

IRONWOOD       FAIR      23   7  50 W9        29.91F WCI  13
6HR MIN TEMP:   9; 6HR MAX TEMP:  23;

$$

ABBREVIATIONS USED IN REMARKS
   TC - TEMPERATURE IN CELSIUS
  WCI - WIND CHILL INDEX
   HX - HEAT INDEX
  VSB - VISIBILITY




USA.gov is the U.S. government's official web portal to all federal, state and local government web resources and services.